Weather History for Buffalo, WY

Change the Weather History Date:

Wednesday, February 6, 2013

  Actual Average Record
Temperature  
Mean Temperature 33 °F 27 °F  
Max Temperature 39 °F 37 °F 53 °F (2009)
Min Temperature 26 °F 17 °F -22 °F (2014)
Degree Days  
Heating Degree Days 32 38  
Month to date heating degree days 204 228  
Since 1 July heating degree days 4082 4435  
Cooling Degree Days 0 0  
Month to date cooling degree days 0 0  
Year to date cooling degree days 0 0  
Moisture  
Dew Point 20 °F    
Average Humidity 58    
Maximum Humidity 69    
Minimum Humidity 47    
Precipitation  
Precipitation 0.00 in 0.01 in 0.09 in (2010)
Month to date precipitation 0.01 0.08  
Year to date precipitation 0.49 0.50  
Sea Level Pressure  
Sea Level Pressure 29.93 in    
Wind  
Wind Speed 10 mph (NW)    
Max Wind Speed 24 mph    
Max Gust Speed 38 mph    
Visibility 10 miles    
Events      
T = Trace of Precipitation, MM = Missing Value Source: NWS Daily Summary

Daily Weather History Graph

Daily Weather History Graph

Search for Another Location

Airport:

Trip Planner

Search our weather history database for the weather conditions in past years. The results will help you decide how hot, cold, wet, or windy it might be!

Date:

Astronomy

Feb. 06, 2013 Rise Set
Actual Time 7:18 AM MST 5:23 PM MST
Civil Twilight 6:48 AM MST 5:54 PM MST
Nautical Twilight 6:13 AM MST 6:28 PM MST
Astronomical Twilight 5:40 AM MST 7:02 PM MST
Moon 4:09 AM MST (2/6) 1:40 PM MST (2/6)
Length of Visible Light 11h 06m
Length of Day
10h 05m
Waning Crescent, 16% of the Moon is Illuminated
Feb 6
Waning Crescent
Feb 10
New
Feb 17
First Quarter
Feb 25
Full
Mar 4
Last Quarter

Hourly Weather History & Observations

Time (MST) Temp. Windchill Dew Point Humidity Pressure Visibility Wind Dir Wind Speed Gust Speed Precip Events Conditions
12:53 AM 34.0 °F 29.8 °F 17.1 °F 50% 29.76 in 10.0 mi West 4.6 mph - N/A   Clear
1:53 AM 35.1 °F 29.3 °F 19.0 °F 52% 29.75 in 10.0 mi West 6.9 mph - N/A   Clear
2:53 AM 36.0 °F 30.3 °F 19.0 °F 50% 29.75 in 10.0 mi NW 6.9 mph - N/A   Clear
3:53 AM 34.0 °F 28.8 °F 19.0 °F 54% 29.76 in 10.0 mi West 5.8 mph - N/A   Clear
4:53 AM 33.1 °F 30.0 °F 17.1 °F 52% 29.80 in 10.0 mi West 3.5 mph - N/A   Clear
5:53 AM 33.1 °F 25.5 °F 17.1 °F 52% 29.82 in 10.0 mi North 9.2 mph - N/A   Clear
6:53 AM 35.1 °F 28.6 °F 18.0 °F 50% 29.84 in 10.0 mi NW 8.1 mph - N/A   Partly Cloudy
7:53 AM 35.1 °F 28.6 °F 18.0 °F 50% 29.87 in 10.0 mi NNW 8.1 mph - N/A   Scattered Clouds
8:53 AM 35.1 °F 26.4 °F 19.9 °F 54% 29.90 in 10.0 mi NNW 12.7 mph 24.2 mph N/A   Clear
9:53 AM 36.0 °F 25.0 °F 21.9 °F 57% 29.91 in 10.0 mi NNW 20.7 mph 28.8 mph N/A   Overcast
10:53 AM 35.1 °F 27.9 °F 24.1 °F 64% 29.94 in 10.0 mi NNW 9.2 mph - N/A   Overcast
11:53 AM 36.0 °F 32.1 °F 24.1 °F 62% 29.94 in 10.0 mi NNW 4.6 mph - N/A   Mostly Cloudy
12:53 PM 37.9 °F 29.2 °F 21.9 °F 53% 29.93 in 10.0 mi NNW 15.0 mph 25.3 mph N/A   Scattered Clouds
1:53 PM 37.0 °F 27.4 °F 21.0 °F 52% 29.94 in 10.0 mi NNW 17.3 mph 27.6 mph N/A   Mostly Cloudy
2:53 PM 35.1 °F 25.5 °F 25.0 °F 67% 29.95 in 10.0 mi NW 15.0 mph - N/A   Mostly Cloudy
3:53 PM 36.0 °F 28.5 °F 21.9 °F 57% 29.98 in 10.0 mi NW 10.4 mph - N/A   Overcast
4:53 PM 34.0 °F 27.2 °F 21.0 °F 59% 30.00 in 10.0 mi WNW 8.1 mph - N/A   Scattered Clouds
5:53 PM 32.0 °F 26.4 °F 19.0 °F 59% 30.03 in 10.0 mi WNW 5.8 mph - N/A   Overcast
6:53 PM 32.0 °F 22.5 °F 19.0 °F 59% 30.04 in 10.0 mi NW 12.7 mph - N/A   Scattered Clouds
7:53 PM 33.1 °F 23.9 °F 19.0 °F 56% 30.05 in 10.0 mi WNW 12.7 mph - N/A   Mostly Cloudy
8:53 PM 28.9 °F 19.2 °F 19.0 °F 67% 30.08 in 10.0 mi WNW 11.5 mph - N/A   Overcast
9:53 PM 32.0 °F 24.8 °F 18.0 °F 56% 30.08 in 10.0 mi WNW 8.1 mph - N/A   Mostly Cloudy
10:53 PM 32.0 °F 23.6 °F 17.1 °F 54% 30.09 in 10.0 mi West 10.4 mph - N/A   Mostly Cloudy
11:53 PM 26.1 °F 16.8 °F 12.9 °F 58% 30.13 in 10.0 mi WSW 9.2 mph - N/A   Clear